Regional Weather Roundup
Issued by NWS Charleston, WV

Home | Current Version | Previous Version | Graphics & Text | Print | Product List | Glossary On
Versions: 1 2 3 4 5 6 7 8 9 10 11 12 13 14 15 16 17 18 19 20 21 22 23 24 25 26 27
000
ASUS41 KRLX 240110
RWRRLX
West Virginia Regional Weather Roundup
National Weather Service Charleston WV
900 PM EDT WED APR 23 2014

Note: "fair" indicates few or no clouds below 12,000 feet with no
significant weather and/or obstructions to visibility.

WVZ003-240200-
Northern Panhandle of West Virginia

CITY           SKY/WX    TMP DP  RH WIND       PRES   REMARKS
WHEELING       CLEAR     44  28  53 NW9       30.06R
$$

WVZ009-240200-
Northwest West Virginia

CITY           SKY/WX    TMP DP  RH WIND       PRES   REMARKS
PARKERSBURG    CLEAR     51  31  46 N6        30.09R
$$

WVZ006-240200-
Western West Virginia

CITY           SKY/WX    TMP DP  RH WIND       PRES   REMARKS
HUNTINGTON     CLEAR     54  30  40 N6        30.05R
$$

WVZ015-240200-
West Central West Virginia

CITY           SKY/WX    TMP DP  RH WIND       PRES   REMARKS
CHARLESTON     CLEAR     55  31  39 N6        30.04R
$$

WVZ031-240200-
North Central West Virginia

CITY           SKY/WX    TMP DP  RH WIND       PRES   REMARKS
CLARKSBURG     CLEAR     47  30  51 N8        30.05R
MORGANTOWN     CLEAR     47  29  49 NW7       30.06R
$$

WVZ035-042-045-240200-
South Central West Virginia

CITY           SKY/WX    TMP DP  RH WIND       PRES   REMARKS
BECKLEY        CLEAR     49  27  42 NW9       30.02R
BLUEFIELD      CLEAR     53  23  31 NW6       30.03R
LEWISBURG      CLEAR     49  25  39 N7        30.02R
$$

WVZ047-240200-
Northern Mountains of West Virginia

CITY           SKY/WX    TMP DP  RH WIND       PRES   REMARKS
ELKINS         CLEAR     46  28  49 NW7       30.04R
$$

WVZ052-240200-
Eastern Panhandle of West Virginia

CITY           SKY/WX    TMP DP  RH WIND       PRES   REMARKS
MARTINSBURG    CLEAR     50  28  42 NW14G28   29.99R
PETERSBURG     CLEAR     54  35  48 NW9G22    30.02R
$$



USA.gov is the U.S. government's official web portal to all federal, state and local government web resources and services.